Location: Anciles
(42.5833°N, 0.5167°E)
Time: 05:32:05
(UTC+00:00)

Cosmos 2369 Rocket - Pass Details

Date: 10 December 2019
Orbit: 828 x 853 km, 71.0° (Epoch: 23 January)

Event Time Altitude Azimuth Distance (km) Brightness Sun altitude
Rises 17:18:21 0° 349° (N) 3,389 5.2 -9.7°
Reaches altitude 10° 17:23:01 10° 24° (NNE) 2,456 4.2 -10.5°
Maximum altitude 17:24:35 11° 41° (NE) 2,379 4.0 -10.7°
Enters shadow 17:24:54 11° 44° (NE) 2,382 4.0 -10.8°
